Location: Harwich
(41.7160°N, 69.9939°W)
Time: 09:10:59
(UTC+01:00)

X-37B - Pass Details

Date: 07 December 2022
Orbit: 277 x 277 km, 45.0° (Epoch: 01 November)

Event Time Altitude Azimuth Distance (km) Brightness Sun altitude
Rises 22:57:17 0° 215° (SW) 1,902 5.2 -8.8°
Reaches altitude 10° 22:59:31 10° 194° (SSW) 1,094 3.4 -9.2°
Maximum altitude 23:01:18 18° 147° (SSE) 771 2.0 -9.5°
Enters shadow 23:02:46 12° 105° (ESE) 1,001 2.2 -9.8°
